www.pogodaiklimat.ru

Погода и климат >> Архив погоды >> Узбекистан >> Ташкент


АРХИВ ПОГОДЫ в Ташкенте

Время (UTC), дата Ветер
(напр.,м/с)
 
Видим.   Явления Облачность Т
(С)
Тd
(С)
f
(%)
Тe
(С)
Тes
(С)
Комфортность P
(гПа)
Po
(гПа)
Тmin
(С)
Tmax
(С)
R
(мм)
S
(см)
18 15.02 СЗ 1 2000 м дымка 9/8 300 м
[Sc Ac lent]
+5.3 +3.6 89 +4 +4 по сезону 1023.3 964.2 +7.5 0.0
21 15.02 ЮВ 1 50 м туман ?/? +2.6 +1.3 91 +1 +1 по сезону 1022.4 962.9
00 16.02 ЮВ 1 2000 м дымка {туман} 4/0
[Ci fib]
+2.6 +1.8 94 +1 +1 по сезону 1019.3 959.9
03 16.02 В 1 50 км 6/0
[Ci fib]
+6.0 +0.3 67 +5 +6 по сезону 1016.5 958.0
06 16.02 ЮВ 2 50 км 9/8 600 м
[Sc Ac lent]
+14.1 +0.4 39 +14 +15 тепло 1013.7 956.9 +1.8
09 16.02 В 3 50 км 8/3 1000 м
[Cu hum Ac trans]
+18.2 -0.2 29 +18 +20 тепло 1010.5 954.7
12 16.02 В 2 50 км 10/10 600 м
[Sc]
+14.2 -0.9 35 +14 +14 тепло 1008.7 952.2
15 16.02 ЮВ 2 10 км слабый дождь 10/10 300 м
[Frnb Ns]
+8.8 +7.7 93 +7 +7 тепло 1013.8 956.1 +19.5
18 16.02 ЮЗ 2 10 км дождь 10/10 300 м
[Frnb Ns]
+8.0 +6.7 91 +6 +6 тепло 1015.6 957.6 +19.5 2
21 16.02 ЮЗ 2 10 км дождь 10/10 300 м
[Frnb Ns]
+8.0 +6.7 91 +6 +6 тепло 1015.6 957.6 +19.5 2
00 17.02 ЮЗ 1 10 км слабый дождь 10/10 600 м
[Sc As op]
+10.5 +8.5 87 +10 +10 тепло 1017.2 959.6
03 17.02 СЗ 2 10 км слабый дождь 10/10 600 м
[Sc As op]
+9.3 +8.2 93 +7 +7 тепло 1015.9 958.2
06 17.02 Ю 1 10 км слабый дождь 10/10 300 м
[Sc As op]
+9.2 +7.7 90 +9 +9 тепло 1014.9 957.2 +7.8 9
09 17.02 З 1 10 км слабый дождь 10/10 300 м
[Frnb Ns]
+8.2 +7.8 97 +7 +7 по сезону 1017.0 959.0
12 17.02 ЮВ 2 10 км слабый дождь 10/10 100 м
[Sc As op]
+5.9 +5.2 95 +3 +3 прохладно 1017.5 959.0
15 17.02 СЗ 1 10 км {дождь} 10/10 600 м
[Sc]
+6.2 +5.3 94 +5 +5 по сезону 1015.5 957.1 +9.8
18 17.02 СЗ 1 4000 м дождь 10/0 300 м
[As op]
+3.8 +3.1 95 +2 +2 по сезону 1016.0 957.1 +9.8 18
21 17.02 Ю 1 4000 м дождь 10/0 200 м
[As op]
+4.6 +3.9 95 +3 +3 по сезону 1015.3 956.6
00 18.02 Ю 2 4000 м дождь 10/0 200 м
[As op]
+2.2 +1.7 96 -1 -1 по сезону 1015.3 956.1
03 18.02 ЮЗ 1 2000 м снег {дождь} 10/10 200 м
[Frnb Ns]
+0.8 +0.3 96 -1 -1 прохладно 1016.8 957.2
06 18.02 Ю 1 1000 м ливневой снег 10/10 100 м
[Cb cap As op]
+0.5 +0.2 98 -2 -2 холодно 1018.0 958.2 +0.7 22
09 18.02 Ю 2 2000 м снег {ливн. осадки} 10/10 100 м
[Frnb Ns]
+0.8 +0.5 98 -3 -3 очень
холодно
1018.4 958.7
12 18.02 З 1 1000 м снег {ливн. осадки} 10/10 100 м
[Frnb Ns]
-0.1 -0.4 98 -2 -2 очень
холодно
1021.2 961.1
18 18.02 З 2 2000 м слабый снег {туман} 10/10 300 м
[Frnb Ns]
-3.8 -4.3 96 -8 -8 очень
холодно
1031.8 970.2 +1.1 12
21 18.02 З 2 2000 м слабый снег 10/10 300 м
[Frnb Ns]
-4.0 -4.5 96 -8 -8 очень
холодно
1034.8 973.0
00 19.02 СЗ 2 2000 м слабый снег 10/10 300 м
[Frnb Ns]
-4.7 -5.3 96 -9 -9 очень
холодно
1036.8 974.7
03 19.02 штиль 0 4000 м слабый снег 10/10 300 м
[Frnb Ns]
-4.7 -5.3 96 -6 -6 очень
холодно
1039.9 977.6 12
06 19.02 СЗ 1 4000 м слабый ливневой дождь {снег} 10/10 300 м
[Cb calv As op]
-2.8 -4.8 86 -5 -5 очень
холодно
1041.3 979.4 -4.8 4
09 19.02 В 1 10 км в посл. час снег {ливн. осадки} 9/9 300 м
[Cu med, cong]
-1.8 -4.6 81 -4 -3 очень
холодно
1040.9 979.2
12 19.02 С 1 10 км {ливн. осадки, снег} 9/9 300 м
[Sc]
-2.3 -5.2 80 -4 -4 очень
холодно
1041.8 980.0
15 19.02 С 1 10 км 3/3 600 м
[Sc]
-4.0 -6.6 82 -6 -6 очень
холодно
1042.4 980.2 -1.0
18 19.02 В 1 4000 м дымка ясно -5.0 -6.3 91 -7 -7 очень
холодно
1041.9 979.5 -1.0 0.0
21 19.02 В 1 2000 м дымка ясно -5.4 -6.8 90 -8 -8 очень
холодно
1040.7 978.3
00 20.02 штиль 0 2000 м дымка ясно -6.2 -7.4 91 -7 -7 холодно 1039.5 976.9
03 20.02 С 1 50 км 9/0
[Ac trans Ci fib]
-6.3 -8.2 86 -9 -8 очень
холодно
1039.6 977.0 6
06 20.02 С 1 50 км 6/0
[Ac lent Ci fib]
+2.1 -8.5 45 +1 +8 по сезону 1037.1 976.5 -6.8
09 20.02 СВ 1 50 км 8/0
[Ac lent Ci fib]
+3.3 -7.5 45 +3 +8 по сезону 1034.8 974.5
12 20.02 СЗ 1 50 км 8/0
[Ac lent Ci fib]
+2.8 -9.8 39 +2 +3 прохладно 1033.4 973.3
15 20.02 СЗ 1 10 км 6/0
[Ac lent Ci fib]
-0.5 -6.2 65 -2 -2 холодно 1033.6 972.7 +3.8
18 20.02 ЮВ 1 4000 м дымка 4/0
[Ci fib]
-2.3 -5.5 79 -4 -4 прохладно 1032.5 971.2 +3.8
21 20.02 ЮВ 1 4000 м дымка 3/0
[Ci fib]
-3.1 -5.1 86 -5 -5 прохладно 1030.9 969.6
00 21.02 ЮВ 1 4000 м дымка 6/0
[Ac lent Ci fib]
-4.0 -5.9 87 -6 -6 холодно 1029.6 968.2
03 21.02 ЮВ 1 10 км 6/0
[Ac lent Ci fib]
-4.1 -6.0 87 -6 -6 очень
холодно
1029.5 968.1 3
06 21.02 СЗ 1 50 км 6/0
[Ci]
+3.8 -5.4 51 +3 +11 опасность
простуды
1027.3 967.6 -4.4
09 21.02 СВ 2 50 км 3/0
[Ci fib]
+5.3 -6.4 43 +4 +10 по сезону 1025.5 966.2
12 21.02 СЗ 1 4000 м дымка ясно +4.8 -1.8 62 +4 +5 прохладно 1025.4 966.1
15 21.02 СЗ 1 4000 м дымка ясно +0.7 -3.2 75 -1 -1 холодно 1026.9 966.6 +6.4
18 21.02 СЗ 1 4000 м дымка ясно -1.2 -3.8 82 -3 -3 холодно 1026.7 966.1 +6.4
21 21.02 В 1 4000 м дымка ясно -2.1 -3.2 92 -4 -4 холодно 1026.5 965.7
00 22.02 ЮЗ 1 4000 м дымка ясно -2.4 -4.0 89 -5 -5 холодно 1025.6 964.7
03 22.02 СВ 1 50 км ясно -1.9 -6.8 69 -4 -3 холодно 1024.3 963.6 2
06 22.02 ЮВ 1 50 км 3/0
[Ci fib]
+6.2 -4.2 47 +6 +14 по сезону 1022.6 963.7 -2.5
09 22.02 ЮВ 1 50 км 8/0
[Ci]
+11.0 -4.1 34 +11 +18 тепло 1020.2 962.4
12 22.02 Ю 1 50 км 6/0
[Ci fib]
+10.8 +0.2 48 +11 +11 тепло 1019.4 961.6

 

Местоположение метеостанции Ташкент (Ташкентская область, Узбекистан): широта 41.27 долгота 69.27 высота над уровнем моря 466 м.

В архиве по умолчанию представлена погода в Ташкенте за последнюю неделю. Архивные данные за месяц целиком и за предыдущие месяцы, начиная с января 2011 года, Вы можете получить, выбрав интересующий диапазон дат из раскрывающегося списка и нажав кнопку "Ввод!".

Внимание! Время в таблицах - всемирное. Для получения местного времени необходимо прибавить поправку, которая в Ташкенте равна 5 ч.

Смотрите также архив погоды в соседних городах и на ближайших метеорологических станциях:

Погода в Каунчи (Ташкентская область, Узбекистан) (31 км)
Погода в Туябугузе (Ташкентская область, Узбекистан) (37 км)
Погода в Келесе (Южно-Казахстанская область, Казахстан) (38 км)
Погода в Красноярской (Южно-Казахстанская область, Казахстан) (54 км)
Погода в Казыгурте (Южно-Казахстанская область, Казахстан) (55 км)
Погода в Дуканте (Ташкентская область, Узбекистан) (68 км)
Погода в Чимгане (Ташкентская область, Узбекистан) (70 км)
Погода в Сырдарье (Сырдарьинская область, Узбекистан) (70 км)
Погода в Ангрене (Ташкентская область, Узбекистан) (82 км)
Погода в Жетысае (Южно-Казахстанская область, Казахстан) (96 км)

Пояснения к столбцам:

Ветер - указаны скорость ветра в м/с - средняя за 10 мин, порывы в срок и между сроками (в фигурных скобках) и направление, откуда дует ветер: С - северный, СВ - северо-восточный, В - восточный, ЮВ - юго-восточный, Ю - южный, ЮЗ - юго-западный, З - западный, СЗ - северо-западный.
Видимость - горизонтальная дальность видимости в метрах или километрах. При видимости от 1 до 10 км при отсутствии осадков обычно наблюдается дымка, при ухудшении видимости до 1 км и менее - туман. В сухую погоду видимость может ухудшаться дымом, пылью или мглою.
Явления - указаны атмосферные явления, наблюдавшиеся в срок или в последний час перед сроком; фигурными скобками обозначены явления, наблюдавшиеся между сроками (за 1-3 часа до срока); квадратными скобками обозначены град или гололедные отложения с указанием их диаметра в мм.
Облачность - указаны через наклонную черту общая и нижняя облачность в баллах и высота нижней границы облаков в метрах; квадратными скобками обозначены формы облаков: Ci - перистые, Cs - перисто-слоистые, Cc - перисто-кучевые, Ac - высококучевые, As - высокослоистые, Sc - слоисто-кучевые, Ns - слоисто-дождевые, Cu - кучевые, Cb - кучево-дождевые. Подробнее классификацию облаков см. в Атласе облаков (PDF).
T - Температура воздуха - температура, измеренная на высоте 2 м над землей.
Td - Температура точки росы - температура, при понижении до которой содержащийся в воздухе водяной пар достигнет насыщения.
f - Относительная влажность воздуха - влажноcть воздуха, измеренная на высоте 2 м над землей.
Te - Эффективная температура - температура, которую ощущает одетый по сезону человек в тени. Характеристика душности погоды. При расчете учитывается влияние влажности воздуха и скорости ветра на теплоощущения человека.
Tes - Эффективная температура на солнце - температура, которую ощущает человек, с поправкой на солнечный нагрев. Характеристика знойности погоды. Зависит от высоты солнца над горизонтом, облачности и скорости ветра. Ночью, в пасмурную погоду, а также при ветре 12 м/с и более поправка равна нулю.
P - Атмосферное давление - приведенное к уровню моря атмосферное давление.
Po - Атмосферное давление - измеренное на уровне метеостанции атмосферное давление.
Tmin - Минимальная температура - минимум температуры воздуха на высоте 2 м над землей.
Tmax - Максимальная температура - максимум температуры воздуха на высоте 2 м над землей.
R - Количество осадков - Количество выпавших осадков, мм. При наведении курсора мыши на число - период времени, за который выпало указанное количество осадков.
S - Снежный покров - Высота снежного покрова, см. При наведении курсора мыши на число - состояние снежного покрова и степень покрытия местности в баллах.